| time (UTC) | temp F | wind direction | speed MPH | gust MPH | rain 1hr in | rain 24hr in | rain mn in | humidity % | barometer mb |
| 20260902173605 | 71 | 221 | 3.0 | 7.0 | 0.00 | 0.00 | 0.00 | 63 | 1007.8 |
| 20260902173106 | 71 | 203 | 1.0 | 7.0 | 0.00 | 0.00 | 0.00 | 63 | 1007.8 |
| 20260902172605 | 70 | 167 | 2.0 | 5.0 | 0.00 | 0.00 | 0.00 | 63 | 1007.8 |
| 20260902172106 | 70 | 143 | 2.0 | 5.0 | 0.00 | 0.00 | 0.00 | 63 | 1007.8 |
| 20260902171604 | 70 | 136 | 0.0 | 8.0 | 0.00 | 0.00 | 0.00 | 64 | 1007.8 |
| 20260902171105 | 70 | 131 | 3.0 | 6.0 | 0.00 | 0.00 | 0.00 | 64 | 1007.8 |
| 20260902170604 | 69 | 143 | 2.0 | 5.0 | 0.00 | 0.00 | 0.00 | 64 | 1007.6 |
| 20260902170106 | 69 | 146 | 3.0 | 6.0 | 0.00 | 0.00 | 0.00 | 64 | 1007.8 |
| 20260902165105 | 69 | 145 | 2.0 | 5.0 | 0.00 | 0.00 | 0.00 | 64 | 1007.8 |
| 20260902164605 | 68 | 180 | 1.0 | 3.0 | 0.00 | 0.00 | 0.00 | 65 | 1007.8 |
| 20260902164105 | 68 | 214 | 2.0 | 5.0 | 0.00 | 0.00 | 0.00 | 65 | 1007.8 |
| 20260902163604 | 68 | 179 | 1.0 | 3.0 | 0.00 | 0.00 | 0.00 | 65 | 1007.8 |
| 20260902163104 | 68 | 181 | 3.0 | 7.0 | 0.00 | 0.00 | 0.00 | 65 | 1007.8 |
| 20260902162604 | 68 | 135 | 2.0 | 3.0 | 0.00 | 0.00 | 0.00 | 64 | 1007.8 |
| 20260902161606 | 68 | 123 | 1.0 | 2.0 | 0.00 | 0.00 | 0.00 | 64 | 1007.8 |
| 20260902161104 | 68 | 130 | 1.0 | 7.0 | 0.00 | 0.00 | 0.00 | 64 | 1007.8 |
| 20260902160105 | 68 | 78 | 2.0 | 3.0 | 0.00 | 0.00 | 0.00 | 66 | 1007.8 |
| 20260902155605 | 67 | 74 | 2.0 | 3.0 | 0.00 | 0.00 | 0.00 | 67 | 1007.8 |
| 20260902154604 | 65 | 147 | 2.0 | 5.0 | 0.00 | 0.00 | 0.00 | 71 | 1007.8 |
| 20260902154105 | 64 | 90 | 0.0 | 2.0 | 0.00 | 0.00 | 0.00 | 74 | 1007.8 |
| 20260902153604 | 63 | 135 | 0.0 | 1.0 | 0.00 | 0.00 | 0.00 | 75 | 1007.8 |
| 20260902153105 | 62 | 85 | 0.0 | 1.0 | 0.00 | 0.00 | 0.00 | 76 | 1007.8 |
| 20260902152605 | 62 | 90 | 0.0 | 0.0 | 0.00 | 0.00 | 0.00 | 76 | 1008.0 |
| 20260902152104 | 62 | 90 | 0.0 | 1.0 | 0.00 | 0.00 | 0.00 | 77 | 1007.9 |
| 20260902151604 | 62 | 90 | 1.0 | 1.0 | 0.00 | 0.00 | 0.00 | 78 | 1008.1 |
| 20260902151104 | 62 | 90 | 0.0 | 0.0 | 0.00 | 0.00 | 0.00 | 78 | 1007.8 |
| 20260902150605 | 61 | 90 | 0.0 | 0.0 | 0.00 | 0.00 | 0.00 | 79 | 1007.8 |
| 20260902150104 | 61 | 67 | 0.0 | 0.0 | 0.00 | 0.00 | 0.00 | 79 | 1007.8 |
| 20260902145604 | 61 | 95 | 0.0 | 2.0 | 0.00 | 0.00 | 0.00 | 80 | 1007.6 |
| 20260902145104 | 61 | 135 | 0.0 | 0.0 | 0.00 | 0.00 | 0.00 | 80 | 1007.5 |
| 20260902144605 | 61 | 135 | 0.0 | 0.0 | 0.00 | 0.00 | 0.00 | 80 | 1007.3 |
| 20260902144105 | 61 | 135 | 0.0 | 0.0 | 0.00 | 0.00 | 0.00 | 80 | 1007.1 |
| 20260902143605 | 60 | 135 | 0.0 | 1.0 | 0.00 | 0.00 | 0.00 | 80 | 1007.1 |
| 20260902143104 | 60 | 135 | 1.0 | 2.0 | 0.00 | 0.00 | 0.00 | 81 | 1007.1 |
| 20260902142605 | 60 | 135 | 0.0 | 1.0 | 0.00 | 0.00 | 0.00 | 81 | 1007.1 |
| 20260902142106 | 60 | 135 | 0.0 | 1.0 | 0.00 | 0.00 | 0.00 | 81 | 1006.8 |
| 20260902141604 | 60 | 135 | 0.0 | 1.0 | 0.00 | 0.00 | 0.00 | 81 | 1007.0 |
| 20260902141104 | 60 | 135 | 1.0 | 3.0 | 0.00 | 0.00 | 0.00 | 81 | 1006.9 |
| 20260902140105 | 61 | 157 | 1.0 | 2.0 | 0.00 | 0.00 | 0.00 | 80 | 1007.1 |
| 20260902135604 | 61 | 157 | 0.0 | 2.0 | 0.00 | 0.00 | 0.00 | 80 | 1006.9 |
| 20260902135104 | 61 | 157 | 0.0 | 2.0 | 0.00 | 0.00 | 0.00 | 80 | 1007.1 |
| 20260902134604 | 61 | 166 | 2.0 | 5.0 | 0.00 | 0.00 | 0.00 | 81 | 1006.8 |
| 20260902134104 | 61 | 142 | 2.0 | 3.0 | 0.00 | 0.00 | 0.00 | 81 | 1006.8 |
| 20260902133605 | 61 | 151 | 2.0 | 5.0 | 0.00 | 0.00 | 0.00 | 82 | 1006.8 |
| 20260902133105 | 60 | 135 | 1.0 | 3.0 | 0.00 | 0.00 | 0.00 | 82 | 1006.8 |
| 20260902132604 | 60 | 157 | 2.0 | 5.0 | 0.00 | 0.00 | 0.00 | 83 | 1006.8 |
| 20260902132104 | 60 | 112 | 1.0 | 5.0 | 0.00 | 0.00 | 0.00 | 84 | 1006.8 |
| 20260902131605 | 60 | 135 | 1.0 | 3.0 | 0.00 | 0.00 | 0.00 | 85 | 1006.8 |
| 20260902131105 | 60 | 113 | 0.0 | 1.0 | 0.00 | 0.00 | 0.00 | 85 | 1006.8 |
| 20260902130604 | 60 | 90 | 0.0 | 2.0 | 0.00 | 0.00 | 0.00 | 86 | 1006.8 |
| 20260902130104 | 60 | 135 | 1.0 | 2.0 | 0.00 | 0.00 | 0.00 | 86 | 1006.8 |
| 20260902125605 | 59 | 90 | 0.0 | 1.0 | 0.00 | 0.00 | 0.00 | 86 | 1006.8 |
| 20260902125104 | 59 | 67 | 0.0 | 1.0 | 0.00 | 0.00 | 0.00 | 86 | 1006.8 |
| 20260902124604 | 59 | 112 | 0.0 | 0.0 | 0.00 | 0.00 | 0.00 | 86 | 1006.8 |
| 20260902124105 | 59 | 112 | 0.0 | 1.0 | 0.00 | 0.00 | 0.00 | 86 | 1006.8 |
| 20260902123604 | 59 | 112 | 0.0 | 0.0 | 0.00 | 0.00 | 0.00 | 86 | 1006.8 |
| 20260902123104 | 59 | 112 | 0.0 | 1.0 | 0.00 | 0.00 | 0.00 | 86 | 1006.8 |
| 20260902122605 | 59 | 45 | 0.0 | 1.0 | 0.00 | 0.00 | 0.00 | 86 | 1006.8 |
| 20260902122105 | 59 | 112 | 0.0 | 1.0 | 0.00 | 0.00 | 0.00 | 86 | 1006.8 |
| 20260902121104 | 59 | 112 | 0.0 | 1.0 | 0.00 | 0.00 | 0.00 | 86 | 1006.8 |
| 20260902120606 | 59 | 112 | 0.0 | 1.0 | 0.00 | 0.00 | 0.00 | 86 | 1006.8 |
| 20260902120104 | 59 | 112 | 0.0 | 0.0 | 0.00 | 0.00 | 0.00 | 86 | 1006.8 |
| 20260902115103 | 59 | 157 | 0.0 | 0.0 | 0.00 | 0.00 | 0.00 | 85 | 1006.8 |
| 20260902114604 | 59 | 180 | 0.0 | 0.0 | 0.00 | 0.00 | 0.00 | 85 | 1006.8 |
| 20260902114104 | 59 | 180 | 0.0 | 0.0 | 0.00 | 0.00 | 0.00 | 85 | 1006.8 |
| 20260902113604 | 59 | 180 | 0.0 | 0.0 | 0.00 | 0.00 | 0.00 | 85 | 1006.8 |
| 20260902113104 | 60 | 180 | 0.0 | 1.0 | 0.00 | 0.00 | 0.00 | 85 | 1006.8 |
| 20260902112604 | 60 | 180 | 1.0 | 2.0 | 0.00 | 0.00 | 0.00 | 84 | 1006.8 |
| 20260902112104 | 60 | 157 | 0.0 | 2.0 | 0.00 | 0.00 | 0.00 | 84 | 1006.8 |
| 20260902111604 | 60 | 135 | 0.0 | 0.0 | 0.00 | 0.00 | 0.00 | 84 | 1006.8 |
| 20260902111105 | 61 | 135 | 1.0 | 2.0 | 0.00 | 0.00 | 0.00 | 84 | 1006.8 |
| 20260902110604 | 61 | 90 | 0.0 | 0.0 | 0.00 | 0.00 | 0.00 | 84 | 1006.8 |
| 20260902110104 | 61 | 90 | 0.0 | 0.0 | 0.00 | 0.00 | 0.00 | 84 | 1006.9 |
| 20260902105604 | 61 | 112 | 1.0 | 2.0 | 0.00 | 0.00 | 0.00 | 84 | 1007.1 |
| 20260902105105 | 61 | 67 | 0.0 | 2.0 | 0.00 | 0.00 | 0.00 | 84 | 1007.1 |
| 20260902103605 | 61 | 67 | 0.0 | 2.0 | 0.00 | 0.00 | 0.00 | 85 | 1007.3 |
| 20260902103105 | 61 | 69 | 0.0 | 2.0 | 0.00 | 0.00 | 0.00 | 85 | 1007.1 |
| 20260902102604 | 61 | 69 | 0.0 | 2.0 | 0.00 | 0.00 | 0.00 | 85 | 1007.1 |
| 20260902102104 | 60 | 67 | 1.0 | 2.0 | 0.00 | 0.00 | 0.00 | 86 | 1007.1 |
| 20260902101604 | 60 | 67 | 1.0 | 2.0 | 0.00 | 0.00 | 0.00 | 86 | 1006.9 |
| 20260902101107 | 60 | 83 | 0.0 | 2.0 | 0.00 | 0.00 | 0.00 | 86 | 1007.1 |
| 20260902100604 | 60 | 86 | 0.0 | 2.0 | 0.00 | 0.00 | 0.00 | 86 | 1007.1 |
| 20260902100104 | 60 | 90 | 1.0 | 5.0 | 0.00 | 0.00 | 0.00 | 86 | 1007.1 |
| 20260902094605 | 59 | 90 | 0.0 | 0.0 | 0.00 | 0.00 | 0.00 | 86 | 1007.3 |
| 20260902094104 | 59 | 79 | 0.0 | 1.0 | 0.00 | 0.00 | 0.00 | 86 | 1007.1 |
| 20260902093603 | 59 | 130 | 0.0 | 1.0 | 0.00 | 0.00 | 0.00 | 86 | 1007.1 |
| 20260902093104 | 59 | 67 | 0.0 | 1.0 | 0.00 | 0.00 | 0.00 | 86 | 1007.1 |
| 20260902092604 | 59 | 135 | 0.0 | 1.0 | 0.00 | 0.00 | 0.00 | 86 | 1007.1 |
| 20260902092104 | 59 | 135 | 0.0 | 2.0 | 0.00 | 0.00 | 0.00 | 86 | 1007.1 |
| 20260902091603 | 59 | 135 | 0.0 | 0.0 | 0.00 | 0.00 | 0.00 | 86 | 1006.9 |
| 20260902091104 | 59 | 112 | 0.0 | 0.0 | 0.00 | 0.00 | 0.00 | 86 | 1007.1 |
| 20260902090604 | 59 | 112 | 0.0 | 1.0 | 0.00 | 0.00 | 0.00 | 86 | 1007.1 |
| 20260902090104 | 59 | 112 | 0.0 | 2.0 | 0.00 | 0.00 | 0.00 | 85 | 1007.1 |
| 20260902085604 | 59 | 112 | 0.0 | 0.0 | 0.00 | 0.00 | 0.00 | 85 | 1007.1 |
| 20260902085103 | 60 | 112 | 0.0 | 1.0 | 0.00 | 0.00 | 0.00 | 85 | 1007.1 |
| 20260902084104 | 60 | 112 | 0.0 | 2.0 | 0.00 | 0.00 | 0.00 | 85 | 1007.1 |
| 20260902083603 | 60 | 135 | 1.0 | 2.0 | 0.00 | 0.00 | 0.00 | 85 | 1007.3 |
| 20260902083104 | 60 | 67 | 0.0 | 1.0 | 0.00 | 0.00 | 0.00 | 85 | 1007.1 |
| 20260902082604 | 60 | 135 | 0.0 | 2.0 | 0.00 | 0.00 | 0.00 | 85 | 1007.1 |
| 20260902082104 | 60 | 135 | 1.0 | 2.0 | 0.00 | 0.00 | 0.00 | 85 | 1007.1 |
| 20260902081603 | 60 | 135 | 1.0 | 2.0 | 0.00 | 0.00 | 0.00 | 85 | 1007.1 |
| 20260902081105 | 60 | 112 | 1.0 | 2.0 | 0.00 | 0.00 | 0.00 | 85 | 1007.1 |
| 20260902080604 | 60 | 135 | 1.0 | 3.0 | 0.00 | 0.00 | 0.00 | 85 | 1007.1 |
| 20260902080104 | 60 | 112 | 0.0 | 0.0 | 0.00 | 0.00 | 0.00 | 84 | 1007.1 |
| 20260902075605 | 60 | 112 | 0.0 | 2.0 | 0.00 | 0.00 | 0.00 | 84 | 1007.1 |
| 20260902075104 | 60 | 135 | 0.0 | 1.0 | 0.00 | 0.00 | 0.00 | 84 | 1007.1 |
| 20260902074604 | 60 | 135 | 0.0 | 1.0 | 0.00 | 0.00 | 0.00 | 84 | 1007.1 |
| 20260902073103 | 60 | 180 | 0.0 | 2.0 | 0.00 | 0.00 | 0.00 | 83 | 1007.1 |
| 20260902072604 | 60 | 135 | 0.0 | 0.0 | 0.00 | 0.00 | 0.00 | 83 | 1006.8 |
| 20260902072104 | 60 | 225 | 0.0 | 0.0 | 0.00 | 0.00 | 0.00 | 82 | 1007.1 |
| 20260902071603 | 60 | 225 | 0.0 | 0.0 | 0.00 | 0.00 | 0.00 | 81 | 1007.1 |
| 20260902071105 | 60 | 225 | 0.0 | 0.0 | 0.00 | 0.00 | 0.00 | 81 | 1006.9 |
| 20260902070605 | 60 | 225 | 0.0 | 0.0 | 0.00 | 0.00 | 0.00 | 80 | 1006.9 |
| 20260902070104 | 60 | 225 | 0.0 | 0.0 | 0.00 | 0.00 | 0.00 | 80 | 1007.1 |
| 20260902065604 | 61 | 225 | 0.0 | 0.0 | 0.00 | 0.00 | 0.00 | 79 | 1007.1 |
| 20260902065104 | 61 | 225 | 0.0 | 0.0 | 0.00 | 0.00 | 0.00 | 79 | 1007.1 |
| 20260902064604 | 61 | 225 | 0.0 | 0.0 | 0.00 | 0.00 | 0.00 | 79 | 1006.9 |
| 20260902064106 | 61 | 225 | 0.0 | 0.0 | 0.00 | 0.00 | 0.00 | 80 | 1006.8 |
| 20260902063605 | 62 | 225 | 1.0 | 3.0 | 0.00 | 0.00 | 0.00 | 80 | 1006.8 |
| 20260902063105 | 62 | 141 | 0.0 | 2.0 | 0.00 | 0.00 | 0.00 | 80 | 1006.8 |
| 20260902062606 | 62 | 129 | 0.0 | 1.0 | 0.00 | 0.00 | 0.00 | 80 | 1006.8 |
| 20260902061606 | 62 | 157 | 0.0 | 1.0 | 0.00 | 0.00 | 0.00 | 80 | 1006.8 |
| 20260902061106 | 61 | 157 | 1.0 | 2.0 | 0.00 | 0.00 | 0.00 | 80 | 1006.8 |
| 20260902060605 | 61 | 135 | 1.0 | 3.0 | 0.00 | 0.00 | 0.00 | 80 | 1006.9 |
| 20260902055605 | 61 | 150 | 0.0 | 0.0 | 0.00 | 0.00 | 0.00 | 81 | 1007.1 |
| 20260902055105 | 61 | 135 | 0.0 | 0.0 | 0.00 | 0.00 | 0.00 | 82 | 1007.0 |
| 20260902054606 | 61 | 135 | 0.0 | 1.0 | 0.00 | 0.00 | 0.00 | 82 | 1007.1 |
| 20260902054106 | 61 | 135 | 0.0 | 0.0 | 0.00 | 0.00 | 0.00 | 82 | 1007.1 |
| 20260902053608 | 61 | 135 | 1.0 | 2.0 | 0.00 | 0.00 | 0.00 | 82 | 1007.1 |
| 20260902053106 | 61 | 191 | 1.0 | 2.0 | 0.00 | 0.00 | 0.00 | 82 | 1007.1 |
| 20260902052605 | 61 | 98 | 1.0 | 3.0 | 0.00 | 0.00 | 0.00 | 83 | 1007.1 |
| 20260902051606 | 60 | 157 | 1.0 | 2.0 | 0.00 | 0.00 | 0.00 | 82 | 1007.2 |
| 20260902051106 | 60 | 90 | 0.0 | 0.0 | 0.00 | 0.00 | 0.00 | 82 | 1007.5 |
| 20260902050606 | 60 | 90 | 0.0 | 0.0 | 0.00 | 0.00 | 0.00 | 82 | 1007.5 |
| 20260902050107 | 60 | 157 | 0.0 | 2.0 | 0.00 | 0.00 | 0.00 | 81 | 1007.5 |
| 20260902044606 | 60 | 202 | 0.0 | 1.0 | 0.00 | 0.00 | 0.00 | 80 | 1007.2 |
| 20260902043606 | 61 | 247 | 0.0 | 0.0 | 0.00 | 0.00 | 0.00 | 78 | 1007.5 |
| 20260902043106 | 61 | 247 | 0.0 | 0.0 | 0.00 | 0.00 | 0.00 | 78 | 1007.5 |
| 20260902042605 | 61 | 157 | 0.0 | 0.0 | 0.00 | 0.00 | 0.00 | 78 | 1007.2 |
| 20260902042105 | 62 | 157 | 0.0 | 0.0 | 0.00 | 0.00 | 0.00 | 78 | 1007.5 |
| 20260902040106 | 62 | 202 | 0.0 | 2.0 | 0.00 | 0.00 | 0.00 | 77 | 1007.1 |
| 20260902035605 | 62 | 200 | 1.0 | 3.0 | 0.00 | 0.00 | 0.00 | 77 | 1007.1 |
| 20260902035107 | 62 | 184 | 2.0 | 5.0 | 0.00 | 0.00 | 0.00 | 76 | 1006.8 |
| 20260902034105 | 63 | 153 | 1.0 | 6.0 | 0.00 | 0.00 | 0.00 | 76 | 1006.9 |
| 20260902033607 | 63 | 181 | 0.0 | 3.0 | 0.00 | 0.00 | 0.00 | 76 | 1006.9 |
| 20260902033106 | 63 | 220 | 1.0 | 3.0 | 0.00 | 0.00 | 0.00 | 76 | 1006.8 |
| 20260902032605 | 63 | 181 | 2.0 | 6.0 | 0.00 | 0.00 | 0.00 | 75 | 1006.8 |
| 20260902032106 | 63 | 235 | 1.0 | 6.0 | 0.00 | 0.00 | 0.00 | 75 | 1006.8 |
| 20260902031605 | 63 | 210 | 2.0 | 5.0 | 0.00 | 0.00 | 0.00 | 74 | 1006.5 |
| 20260902031105 | 63 | 157 | 1.0 | 5.0 | 0.00 | 0.00 | 0.00 | 73 | 1006.7 |
| 20260902030605 | 63 | 228 | 2.0 | 7.0 | 0.00 | 0.00 | 0.00 | 72 | 1006.7 |
| 20260902030106 | 63 | 199 | 1.0 | 3.0 | 0.00 | 0.00 | 0.00 | 71 | 1006.4 |
| 20260902025606 | 64 | 224 | 1.0 | 5.0 | 0.00 | 0.00 | 0.00 | 70 | 1006.4 |
| 20260902024606 | 64 | 135 | 0.0 | 7.0 | 0.00 | 0.00 | 0.00 | 68 | 1006.4 |
| 20260902024105 | 65 | 167 | 2.0 | 6.0 | 0.00 | 0.00 | 0.00 | 66 | 1006.4 |
| 20260902023605 | 65 | 344 | 1.0 | 2.0 | 0.00 | 0.00 | 0.00 | 65 | 1006.4 |
| 20260902023105 | 65 | 202 | 1.0 | 2.0 | 0.00 | 0.00 | 0.00 | 65 | 1006.1 |
| 20260902022607 | 66 | 202 | 1.0 | 8.0 | 0.00 | 0.00 | 0.00 | 63 | 1006.2 |
| 20260902022106 | 67 | 286 | 2.0 | 6.0 | 0.00 | 0.00 | 0.00 | 61 | 1006.1 |
| 20260902021605 | 67 | 226 | 3.0 | 6.0 | 0.00 | 0.00 | 0.00 | 58 | 1006.4 |
| 20260902020105 | 69 | 239 | 1.0 | 6.0 | 0.00 | 0.00 | 0.00 | 53 | 1006.1 |
| 20260902015606 | 69 | 209 | 2.0 | 7.0 | 0.00 | 0.00 | 0.00 | 53 | 1006.1 |
| 20260902015105 | 70 | 234 | 5.0 | 8.0 | 0.00 | 0.00 | 0.00 | 52 | 1006.1 |
| 20260902014607 | 70 | 227 | 2.0 | 5.0 | 0.00 | 0.00 | 0.00 | 52 | 1006.0 |
| 20260902013606 | 71 | 142 | 1.0 | 8.0 | 0.00 | 0.00 | 0.00 | 52 | 1005.8 |
| 20260902013106 | 71 | 153 | 1.0 | 7.0 | 0.00 | 0.00 | 0.00 | 52 | 1005.8 |
| 20260902012105 | 70 | 331 | 2.0 | 7.0 | 0.00 | 0.00 | 0.00 | 52 | 1005.8 |
| 20260902011606 | 70 | 233 | 4.0 | 8.0 | 0.00 | 0.00 | 0.00 | 52 | 1005.8 |
| 20260902011107 | 71 | 262 | 3.0 | 6.0 | 0.00 | 0.00 | 0.00 | 52 | 1005.8 |
| 20260902010607 | 70 | 237 | 2.0 | 7.0 | 0.00 | 0.00 | 0.00 | 53 | 1005.8 |
| 20260902010106 | 70 | 232 | 4.0 | 8.0 | 0.00 | 0.00 | 0.00 | 53 | 1005.8 |
| 20260902005606 | 70 | 220 | 6.0 | 12.0 | 0.00 | 0.00 | 0.00 | 52 | 1005.8 |
| 20260902004605 | 72 | 249 | 5.0 | 9.0 | 0.00 | 0.00 | 0.00 | 50 | 1005.4 |
| 20260902004105 | 73 | 246 | 3.0 | 6.0 | 0.00 | 0.00 | 0.00 | 50 | 1005.4 |
| 20260902003605 | 73 | 168 | 2.0 | 6.0 | 0.00 | 0.00 | 0.00 | 50 | 1005.5 |
| 20260902003105 | 72 | 216 | 3.0 | 7.0 | 0.00 | 0.00 | 0.00 | 49 | 1005.8 |
| 20260902002105 | 73 | 237 | 2.0 | 5.0 | 0.00 | 0.00 | 0.00 | 48 | 1005.8 |
| 20260902001606 | 73 | 249 | 2.0 | 7.0 | 0.00 | 0.00 | 0.00 | 48 | 1005.4 |
| 20260902001105 | 73 | 193 | 2.0 | 6.0 | 0.00 | 0.00 | 0.00 | 47 | 1005.8 |
| 20260902000605 | 73 | 251 | 3.0 | 7.0 | 0.00 | 0.00 | 0.00 | 48 | 1005.8 |
| 20260902000106 | 72 | 217 | 2.0 | 6.0 | 0.00 | 0.00 | 0.00 | 49 | 1005.7 |
| 20260901235605 | 71 | 156 | 2.0 | 7.0 | 0.00 | 0.00 | 0.00 | 49 | 1005.8 |
| 20260901235106 | 71 | 226 | 3.0 | 9.0 | 0.00 | 0.00 | 0.00 | 48 | 1005.7 |
| 20260901234605 | 72 | 228 | 5.0 | 12.0 | 0.00 | 0.00 | 0.00 | 48 | 1005.5 |
| 20260901234106 | 73 | 232 | 4.0 | 9.0 | 0.00 | 0.00 | 0.00 | 47 | 1005.8 |
| 20260901233605 | 73 | 245 | 5.0 | 10.0 | 0.00 | 0.00 | 0.00 | 47 | 1005.5 |
| 20260901233106 | 73 | 251 | 2.0 | 8.0 | 0.00 | 0.00 | 0.00 | 47 | 1005.5 |
| 20260901232105 | 73 | 236 | 6.0 | 10.0 | 0.00 | 0.00 | 0.00 | 46 | 1005.7 |
| 20260901231605 | 73 | 230 | 3.0 | 8.0 | 0.00 | 0.00 | 0.00 | 46 | 1005.8 |
| 20260901231105 | 73 | 245 | 4.0 | 8.0 | 0.00 | 0.00 | 0.00 | 46 | 1005.8 |
| 20260901230605 | 73 | 230 | 4.0 | 10.0 | 0.00 | 0.00 | 0.00 | 45 | 1005.8 |
| 20260901225605 | 74 | 233 | 3.0 | 10.0 | 0.00 | 0.00 | 0.00 | 45 | 1006.0 |
| 20260901225106 | 74 | 257 | 4.0 | 7.0 | 0.00 | 0.00 | 0.00 | 45 | 1005.8 |
| 20260901224605 | 74 | 262 | 5.0 | 9.0 | 0.00 | 0.00 | 0.00 | 44 | 1005.8 |
| 20260901224105 | 74 | 278 | 3.0 | 8.0 | 0.00 | 0.00 | 0.00 | 44 | 1005.8 |
| 20260901223604 | 74 | 221 | 4.0 | 10.0 | 0.00 | 0.00 | 0.00 | 43 | 1005.8 |
| 20260901223105 | 74 | 214 | 3.0 | 8.0 | 0.00 | 0.00 | 0.00 | 43 | 1005.8 |
| 20260901222605 | 75 | 233 | 3.0 | 8.0 | 0.00 | 0.00 | 0.00 | 43 | 1006.1 |
| 20260901222106 | 76 | 248 | 5.0 | 12.0 | 0.00 | 0.00 | 0.00 | 42 | 1005.8 |
| 20260901221105 | 76 | 165 | 2.0 | 8.0 | 0.00 | 0.00 | 0.00 | 42 | 1005.8 |
| 20260901220605 | 76 | 191 | 2.0 | 7.0 | 0.00 | 0.00 | 0.00 | 43 | 1005.8 |
| 20260901220105 | 76 | 140 | 3.0 | 8.0 | 0.00 | 0.00 | 0.00 | 43 | 1006.1 |
| 20260901215606 | 76 | 186 | 3.0 | 10.0 | 0.00 | 0.00 | 0.00 | 43 | 1006.1 |
| 20260901214605 | 75 | 157 | 3.0 | 8.0 | 0.00 | 0.00 | 0.00 | 43 | 1006.1 |
| 20260901214105 | 75 | 225 | 2.0 | 7.0 | 0.00 | 0.00 | 0.00 | 44 | 1006.1 |
| 20260901213105 | 75 | 148 | 3.0 | 10.0 | 0.00 | 0.00 | 0.00 | 45 | 1006.1 |
| 20260901212605 | 74 | 176 | 2.0 | 6.0 | 0.00 | 0.00 | 0.00 | 46 | 1006.1 |
| 20260901212105 | 73 | 207 | 2.0 | 8.0 | 0.00 | 0.00 | 0.00 | 48 | 1006.1 |
| 20260901211604 | 73 | 208 | 4.0 | 8.0 | 0.00 | 0.00 | 0.00 | 48 | 1006.1 |
| 20260901210605 | 74 | 261 | 2.0 | 7.0 | 0.00 | 0.00 | 0.00 | 46 | 1006.0 |
| 20260901205105 | 72 | 228 | 3.0 | 9.0 | 0.00 | 0.00 | 0.00 | 49 | 1006.1 |
| 20260901204105 | 72 | 249 | 3.0 | 8.0 | 0.00 | 0.00 | 0.00 | 48 | 1006.1 |
| 20260901203606 | 72 | 243 | 4.0 | 8.0 | 0.00 | 0.00 | 0.00 | 47 | 1006.1 |
| 20260901203105 | 73 | 286 | 2.0 | 7.0 | 0.00 | 0.00 | 0.00 | 46 | 1006.1 |
| 20260901202104 | 73 | 131 | 2.0 | 8.0 | 0.00 | 0.00 | 0.00 | 46 | 1006.1 |
| 20260901201604 | 73 | 234 | 3.0 | 8.0 | 0.00 | 0.00 | 0.00 | 46 | 1006.1 |
| 20260901201104 | 73 | 220 | 2.0 | 8.0 | 0.00 | 0.00 | 0.00 | 47 | 1006.4 |
| 20260901200605 | 73 | 221 | 2.0 | 8.0 | 0.00 | 0.00 | 0.00 | 47 | 1006.1 |
| 20260901195605 | 73 | 160 | 3.0 | 8.0 | 0.00 | 0.00 | 0.00 | 47 | 1006.4 |
| 20260901195105 | 72 | 161 | 2.0 | 6.0 | 0.00 | 0.00 | 0.00 | 47 | 1006.4 |
| 20260901194605 | 73 | 229 | 2.0 | 6.0 | 0.00 | 0.00 | 0.00 | 47 | 1006.4 |
| 20260901194104 | 73 | 224 | 2.0 | 8.0 | 0.00 | 0.00 | 0.00 | 48 | 1006.4 |
| 20260901193606 | 72 | 166 | 2.0 | 5.0 | 0.00 | 0.00 | 0.00 | 49 | 1006.4 |
| 20260901193105 | 72 | 134 | 3.0 | 7.0 | 0.00 | 0.00 | 0.00 | 50 | 1006.5 |
| 20260901192606 | 71 | 178 | 2.0 | 5.0 | 0.00 | 0.00 | 0.00 | 51 | 1006.8 |
| 20260901191105 | 69 | 214 | 3.0 | 6.0 | 0.00 | 0.00 | 0.00 | 52 | 1006.8 |
| 20260901190605 | 69 | 235 | 3.0 | 6.0 | 0.00 | 0.00 | 0.00 | 53 | 1006.8 |
| 20260901190105 | 69 | 235 | 2.0 | 5.0 | 0.00 | 0.00 | 0.00 | 53 | 1006.8 |
| 20260901185605 | 69 | 255 | 3.0 | 6.0 | 0.00 | 0.00 | 0.00 | 53 | 1006.8 |
| 20260901185105 | 69 | 231 | 2.0 | 5.0 | 0.00 | 0.00 | 0.00 | 54 | 1006.8 |
| 20260901184605 | 69 | 235 | 2.0 | 5.0 | 0.00 | 0.00 | 0.00 | 54 | 1006.8 |
| 20260901183604 | 68 | 233 | 3.0 | 7.0 | 0.00 | 0.00 | 0.00 | 56 | 1007.1 |
| 20260901183106 | 68 | 281 | 1.0 | 6.0 | 0.00 | 0.00 | 0.00 | 59 | 1006.8 |
| 20260901182604 | 68 | 229 | 5.0 | 10.0 | 0.00 | 0.00 | 0.00 | 61 | 1007.1 |
| 20260901182105 | 67 | 272 | 3.0 | 5.0 | 0.00 | 0.00 | 0.00 | 61 | 1006.8 |
| 20260901181604 | 67 | 260 | 3.0 | 7.0 | 0.00 | 0.00 | 0.00 | 61 | 1006.8 |
| 20260901181104 | 67 | 241 | 4.0 | 8.0 | 0.00 | 0.00 | 0.00 | 62 | 1006.8 |
| 20260901180604 | 67 | 259 | 4.0 | 9.0 | 0.00 | 0.00 | 0.00 | 63 | 1006.8 |
| 20260901180105 | 67 | 227 | 5.0 | 12.0 | 0.00 | 0.00 | 0.00 | 64 | 1006.8 |
| 20260901175605 | 66 | 243 | 5.0 | 10.0 | 0.00 | 0.00 | 0.00 | 64 | 1006.8 |
| 20260901175104 | 66 | 267 | 3.0 | 10.0 | 0.00 | 0.00 | 0.00 | 65 | 1006.8 |
| 20260901174604 | 67 | 240 | 5.0 | 12.0 | 0.00 | 0.00 | 0.00 | 67 | 1006.8 |
| 20260901174104 | 66 | 273 | 3.0 | 9.0 | 0.00 | 0.00 | 0.00 | 68 | 1006.8 |